User: anonymous   Login
Location: Unspecified
(0.0000°N, 0.0000°E)
Time: 17:29:12
(UTC+00:00)
Language:

UNISAT 3 - Orbit

View from above orbital plane
View from above orbital plane
View from above satellite
View from above satellite

Ground track
Ground track

The orbit data is extracted from the following two-line orbital elements,

1 28373U 04025H   23333.43501226  .00001621  00000-0  44883-3 0  9991
2 28373  98.6258 303.1194 0066382 282.8603  76.5179 14.46798468 24343
Epoch (UTC): 29 November 2023 10:26:25
Eccentricity: 0.0066382
inclination: 98.6258°
perigee height: 689 km
apogee height: 783 km
right ascension of ascending node: 303.1194°
argument of perigee: 282.8603°
revolutions per day: 14.46798468
mean anomaly at epoch: 76.5179°
orbit number at epoch: 2434

The dashed part of the orbit path shows where the satellite is in the earth's shadow,  

DLR